Weather History for New York JFK, NY

Change the Weather History Date:

Thursday, January 17, 2013

  Actual Average Record
Temperature  
Mean Temperature 41 °F 32 °F  
Max Temperature 46 °F 39 °F 55 °F (1973)
Min Temperature 36 °F 26 °F -1 °F (1977)
Degree Days  
Heating Degree Days 24 33  
Month to date heating degree days 442 547  
Since 1 July heating degree days 1993 2216  
Cooling Degree Days 0 0  
Month to date cooling degree days 0 0  
Year to date cooling degree days 0 0  
Moisture  
Dew Point 26 °F    
Average Humidity 65    
Maximum Humidity 85    
Minimum Humidity 45    
Precipitation  
Precipitation 0.00 in 0.10 in 1.18 in (1997)
Month to date precipitation 1.61 1.81  
Year to date precipitation 1.61 1.81  
Snow  
Snow 0.00 in 0.20 in 5.90 in (1985)
Month to date snowfall 0.1 3.4  
Since 1 July snowfall 4.8 8.3  
Snow Depth 0.00 in    
Sea Level Pressure  
Sea Level Pressure 30.03 in    
Wind  
Wind Speed 12 mph (NW)    
Max Wind Speed 21 mph    
Max Gust Speed 26 mph    
Visibility 10 miles    
Events      
T = Trace of Precipitation, MM = Missing Value Source: NWS Daily Summary

Daily Weather History Graph

Daily Weather History Graph

Search for Another Location

Airport:

Trip Planner

Search our weather history database for the weather conditions in past years. The results will help you decide how hot, cold, wet, or windy it might be!

Date:

Astronomy

Jan. 17, 2013 Rise Set
Actual Time 7:15 AM EST 4:55 PM EST
Civil Twilight 6:45 AM EST 5:25 PM EST
Nautical Twilight 6:12 AM EST 5:58 PM EST
Astronomical Twilight 5:39 AM EST 6:31 PM EST
Moon 10:19 AM EST (1/17) 11:46 PM EST (1/17)
Length of Visible Light 10h 39m
Length of Day
9h 39m
Waxing Crescent, 37% of the Moon is Illuminated
Jan 17
Waxing Crescent
Jan 18
First Quarter
Jan 26
Full
Feb 3
Last Quarter
Feb 10
New

Hourly Weather History & Observations

Time (EST) Temp. Windchill Dew Point Humidity Pressure Visibility Wind Dir Wind Speed Gust Speed Precip Events Conditions
12:51 AM 39.0 °F 32.3 °F 33.1 °F 79% 29.96 in 10.0 mi West 10.4 mph - N/A   Overcast
1:51 AM 39.0 °F 32.3 °F 32.0 °F 76% 29.93 in 10.0 mi West 10.4 mph - N/A   Overcast
2:51 AM 39.0 °F 31.4 °F 32.0 °F 76% 29.97 in 10.0 mi WSW 12.7 mph - N/A   Overcast
3:51 AM 39.0 °F 31.8 °F 33.1 °F 79% 29.95 in 10.0 mi WSW 11.5 mph - N/A   Overcast
4:51 AM 39.0 °F 32.8 °F 30.9 °F 73% 29.94 in 10.0 mi West 9.2 mph - N/A   Overcast
5:51 AM 39.9 °F 31.4 °F 28.9 °F 65% 29.97 in 10.0 mi WNW 16.1 mph - N/A   Overcast
6:51 AM 39.0 °F 31.0 °F 27.0 °F 62% 30.00 in 10.0 mi WNW 13.8 mph - N/A   Mostly Cloudy
7:51 AM 39.9 °F 33.9 °F 27.0 °F 60% 30.03 in 10.0 mi WNW 9.2 mph - N/A   Mostly Cloudy
8:51 AM 41.0 °F 33.9 °F 26.1 °F 55% 30.06 in 10.0 mi NW 12.7 mph - N/A   Mostly Cloudy
9:51 AM 41.0 °F 33.1 °F 25.0 °F 53% 30.07 in 10.0 mi NW 15.0 mph 20.7 mph N/A   Mostly Cloudy
10:51 AM 42.1 °F 34.9 °F 25.0 °F 51% 30.07 in 10.0 mi NW 13.8 mph 23.0 mph N/A   Mostly Cloudy
11:51 AM 43.0 °F 34.8 °F 26.1 °F 51% 30.06 in 10.0 mi NW 18.4 mph - N/A   Mostly Cloudy
12:51 PM 43.0 °F 35.1 °F 25.0 °F 49% 30.05 in 10.0 mi NW 17.3 mph - N/A   Mostly Cloudy
1:51 PM 44.1 °F 37.4 °F 25.0 °F 47% 30.05 in 10.0 mi NW 13.8 mph - N/A   Mostly Cloudy
2:51 PM 43.0 °F 38.2 °F 25.0 °F 49% 30.05 in 10.0 mi NW 8.1 mph - N/A   Mostly Cloudy
3:51 PM 42.1 °F 35.2 °F 24.1 °F 49% 30.06 in 10.0 mi NNW 12.7 mph - N/A   Overcast
4:51 PM 42.1 °F 36.6 °F 24.1 °F 49% 30.07 in 10.0 mi North 9.2 mph - N/A   Overcast
5:51 PM 41.0 °F 36.4 °F 24.1 °F 51% 30.09 in 10.0 mi North 6.9 mph - N/A   Overcast
6:51 PM 41.0 °F 35.8 °F 21.9 °F 47% 30.10 in 10.0 mi NNW 8.1 mph - N/A   Overcast
7:51 PM 41.0 °F 35.2 °F 24.1 °F 51% 30.11 in 10.0 mi NNW 9.2 mph - N/A   Overcast
8:51 PM 39.9 °F 33.4 °F 24.1 °F 53% 30.05 in 10.0 mi North 10.4 mph - N/A   Overcast
9:51 PM 39.0 °F 31.4 °F 24.1 °F 55% 30.06 in 10.0 mi North 12.7 mph - N/A   Overcast
10:51 PM 37.0 °F 29.8 °F 24.1 °F 59% 30.03 in 10.0 mi NNE 10.4 mph - N/A   Overcast
11:51 PM 36.0 °F 29.6 °F 21.9 °F 57% 30.05 in 10.0 mi North 8.1 mph - N/A   Overcast